Regional Weather Roundup
Issued by NWS

Home | Current Version | Previous Version | Graphics & Text | Print | Product List | Glossary On
Versions: 1 2 3 4 5 6 7 8 9 10 11 12 13 14 15 16 17 18 19 20 21 22 23 24 25 26 27 28 29 30 31 32 33 34 35 36 37 38 39 40 41 42 43 44 45 46 47 48 49 50
000
ASUS45 KBOU 250307
RWRCO

WEATHER ROUNDUP FOR COLORADO
NATIONAL WEATHER SERVICE DENVER/BOULDER CO
900 PM MDT SUN JUL 24 2016

NOTE: "FAIR" INDICATES FEW OR NO CLOUDS BELOW 12000 FEET WITH NO
SIGNIFICANT WEATHER AND/OR OBSTRUCTIONS TO VISIBILITY.

COZ001>005-013-030-031-250400-
...NORTHWEST COLORADO...

CITY           SKY/WX    TMP DP  RH WIND       PRES   REMARKS
CRAIG          FAIR      77  40  26 E8        30.18R
HAYDEN         FAIR      73  39  29 E15       30.22R
MEEKER         FAIR      70  42  36 CALM      30.19R
MOUNT WERNER   NOT AVBL
STEAMBOAT SPGS FAIR      71  43  36 CALM      30.26R
WALDEN         FAIR      59  41  51 SE6       30.38R
$$

COZ006>008-011-250400-
...WEST CENTRAL VALLEYS...

CITY           SKY/WX    TMP DP  RH WIND       PRES   REMARKS
GRAND JUNCTION FAIR      86  39  19 E10       30.03R
MONTROSE       FAIR      82  43  25 SE9       30.15R
EAGLE          FAIR      73  41  31 NE5       30.26R
RIFLE          FAIR      80  43  26 E12       30.11R
DELTA          FAIR      85  38  19 CALM      30.09R
NUCLA          FAIR     N/A N/A N/A E9        30.19R
$$

COZ017>023-064>068-250400-
...SOUTHWEST COLORADO...

CITY           SKY/WX    TMP DP  RH WIND       PRES   REMARKS
DURANGO        FAIR      76  43  30 NW5       30.25R
CORTEZ         FAIR      77  45  32 E5        30.17R
PAGOSA SPRINGS FAIR      75  32  20 W5        30.35R
TELLURIDE      FAIR      64  45  50 SE6       30.49R
WOLF CREEK PAS CLOUDY    54  30  40 N5        30.73S
$$

COZ009-010-012-014-032>034-037-058>063-250400-
...CENTRAL COLORADO...

CITY           SKY/WX    TMP DP  RH WIND       PRES   REMARKS
ASPEN          FAIR      65  44  46 SW9       30.34R
BUENA VISTA    LGT RAIN  72  40  31 NW15      30.38R
COPPER MTN     MOCLDY    59  30  33 W8        30.71F
BERTHOUD PASS  MOCLDY    48  34  57 NW10      30.74S
COTTONWOOD PAS MOCLDY    68  32  26 CALM      30.54R
GUNNISON       FAIR      70  34  26 N12       30.35R
KREMMLING      FAIR      61  48  63 CALM      30.35R
LEADVILLE      FAIR      57  34  41 NE6       30.53S
MONARCH PASS   CLOUDY    55  37  50 MISG      30.80R
SALIDA         FAIR      76  40  27 SE13G20   30.39R
SUNLIGHT       FAIR      61  36  39 CALM      30.62R
WILKERSON PASS MOCLDY    52  43  71 E9G18     30.69R THUNDER
$$

COZ069>075-250400-
...SAN LUIS VALLEY/SANGRE DE CRISTO MOUNTAINS...

CITY           SKY/WX    TMP DP  RH WIND       PRES   REMARKS
ALAMOSA        FAIR      71  48  43 S12       30.32R
LA VETA PASS   FAIR      59  45  58 CALM      30.56R
SAGUACHE       FAIR      72  39  30 NW9G16    30.34R
$$

COZ035-036-038>040-250400-
...NORTHERN COLORADO FRONT RANGE...

CITY           SKY/WX    TMP DP  RH WIND       PRES   REMARKS
DENVER INTL AP MOCLDY    69  55  60 E24G31    30.23R
DMNS CITY PARK   N/A     71  53  53 E8G16     30.24R
AURORA         PTCLDY    69  54  60 SE23G32   30.24R
FRONT RANGE AP MOCLDY    72  57  60 E22G33    30.25R
ERIE MUNI ARPT FAIR      68  53  58 NE5       30.23R
BOULDER MUN AP FAIR      70  54  56 NE5       30.24R
CENTENNIAL     FAIR      70  56  61 SE14      30.24R
BROOMFIELD     MOCLDY    73  54  49 NE7       30.26R
LONGMONT       FAIR      71  55  58 NE6       30.24R
$$

COZ041-046-047-076>085-087-088-250400-
...PIKES PEAK/PALMER DIVIDE AND SOUTHERN FOOTHILLS...

CITY           SKY/WX    TMP DP  RH WIND       PRES   REMARKS
COLO. SPRINGS  MOCLDY    67  56  67 SE8       30.31R
A. F. ACADEMY  MOCLDY    68  54  60 S10       30.32R
SCHRIEVER AFB  NOT AVBL
ELLICOTT       FAIR     N/A N/A N/A E8        30.28R
FALCON         NOT AVBL
FORT CARSON    NOT AVBL
LIMON          FAIR      62  57  83 NE23G33   30.29R
MONUMENT HILL  FAIR      64  52  63 S15       30.37R
TRINIDAD       NOT AVBL
$$

COZ042>045-048>051-090-091-250400-
...NORTHEAST COLORADO...

CITY           SKY/WX    TMP DP  RH WIND       PRES   REMARKS
GREELEY ARPT   FAIR      64  57  77 E5        30.24R
AKRON          FAIR      63  56  78 SE21G33   30.19R
BURLINGTON     TSTM      65  61  87 N22G35    30.32R FOG
WRAY           HVY RAIN  63  59  88 N15       30.28R
STERLING       FAIR      66  57  72 SE14G24   30.13R
HOLYOKE        CLOUDY    64  57  77 W25G33    30.14F
FORT MORGAN    FAIR      61  58  90 SE8       30.19R
$$

COZ086-089-092>099-250400-
...SOUTHEAST COLORADO...

CITY           SKY/WX    TMP DP  RH WIND       PRES   REMARKS
PUEBLO         FAIR      75  58  55 NE10      30.18R
LA JUNTA       LGT RAIN  73  58  59 S13       30.12F
LAMAR          FAIR      77  60  55 VRB3      30.10R
SPRINGFIELD      N/A     74  57  55 NW10      30.17R
$$



USA.gov is the U.S. government's official web portal to all federal, state and local government web resources and services.